DateTimeUTC,F1_A11,F1_S11,BsB_S11,BsG_S11,BsR_S11,BbsB_S11,BbsG_S11,BbsR_S11,BaB_A11,BaG_A11,BaR_A11,Tu_S11,T_S11,Uu_S11,U_S11,P_S11,T1_A11
2021-06-25T16:00:00Z,00000200,20000000,,,,,,,-000.09,-000.21,-000.28,18.3,24.8,07.7,05.2,0663.2,31.1
2021-06-25T16:01:00Z,00000200,20000000,,,,,,,0000.15,0000.08,0000.44,18.3,24.8,07.7,05.2,0663.2,31.1
2021-06-25T16:02:00Z,00000200,20000000,,,,,,,0000.12,0000.04,-000.02,18.3,24.8,07.7,05.2,0663.2,31.1
2021-06-25T16:03:00Z,00000200,60000000,,,,,,,0000.07,0000.31,0000.10,18.3,24.8,07.7,05.2,0663.2,31.1
2021-06-25T16:04:00Z,00000200,40000000,0001.22,0000.95,0000.42,-000.04,0000.14,-000.07,0000.40,0000.03,-000.05,18.4,24.6,07.8,05.4,0664.1,31.1
2021-06-25T16:05:00Z,00000200,00000000,0001.82,0000.56,0000.45,-000.28,0000.21,0000.26,-000.02,0000.15,0000.14,18.5,24.6,07.6,05.2,0664.1,31.1
2021-06-25T16:06:00Z,00000200,00000000,0000.88,0000.52,0000.68,0000.42,0000.26,0000.11,0000.42,0000.45,0000.14,18.5,24.6,07.6,05.3,0663.9,31.1
2021-06-25T16:07:00Z,00000200,00000000,0001.47,0000.69,0000.40,0000.29,0000.14,-000.24,0000.24,0000.22,0000.08,18.5,24.6,07.6,05.2,0664.0,31.1
2021-06-25T16:08:00Z,00000200,00000000,0001.39,0000.96,0000.23,0000.48,0000.05,-000.01,0000.39,0000.15,0000.33,18.5,24.6,07.6,05.2,0664.3,31.1
2021-06-25T16:09:00Z,00000200,00000000,0000.72,0000.60,0000.59,-000.28,0000.03,0000.05,-000.05,0000.36,0000.31,18.5,24.6,07.6,05.2,0664.2,31.1
2021-06-25T16:10:00Z,00000200,00000000,0001.23,0000.98,0000.50,0000.38,-000.05,0000.26,0000.39,0000.24,0000.20,18.5,24.6,07.6,05.2,0664.2,31.1
2021-06-25T16:11:00Z,00000200,00000000,0001.35,0000.72,0000.46,0000.25,0000.08,0000.08,0000.36,0000.20,0000.23,18.5,24.6,07.6,05.2,0664.3,31.1
2021-06-25T16:12:00Z,00000200,00000000,0001.30,0000.70,0000.50,0000.45,0000.21,0000.29,0000.35,0000.43,0000.29,18.5,24.6,07.6,05.3,0664.2,31.1
2021-06-25T16:13:00Z,00000200,00000000,0001.34,0000.76,0000.33,0000.39,0000.05,0000.07,0000.11,0000.22,-000.04,18.5,24.6,07.5,05.1,0663.9,31.1
2021-06-25T16:14:00Z,00000200,00000000,0001.34,0000.75,0000.20,0000.08,0000.17,0000.02,0000.58,0000.17,0000.25,18.5,24.6,07.5,05.2,0664.1,31.1
2021-06-25T16:15:00Z,00000200,00000000,0001.30,0000.72,0000.64,0000.13,0000.18,0000.08,0000.08,0000.26,0000.13,18.5,24.5,07.5,05.2,0664.1,31.1
2021-06-25T16:16:00Z,00000200,00000000,0001.63,0001.07,0000.37,0000.27,0000.33,0000.28,0000.44,0000.48,0000.32,18.4,24.5,07.4,05.1,0664.3,31.1
2021-06-25T16:17:00Z,00000200,00000000,0001.33,0001.16,0000.41,0000.05,0000.27,0000.35,0000.25,0000.11,-000.00,18.4,24.5,07.5,05.1,0664.1,31.1
2021-06-25T16:18:00Z,00000200,00000000,0000.87,0001.03,0000.52,0000.12,0000.05,0000.41,0000.50,0000.26,0000.65,18.4,24.5,07.4,05.1,0664.3,31.1
2021-06-25T16:19:00Z,00000200,00000000,0001.24,0000.77,0000.52,-000.06,0000.04,-000.11,0000.36,0000.52,0000.22,18.5,24.5,07.7,05.3,0664.4,31.1
2021-06-25T16:20:00Z,00000200,00000000,0001.17,0000.97,0000.32,0000.46,0000.26,0000.15,0000.34,0000.28,0000.18,18.5,24.6,07.8,05.4,0664.4,31.1
2021-06-25T16:21:00Z,00000200,00000000,0001.15,0000.81,0000.21,0000.31,0000.11,0000.22,0000.53,0000.55,0000.35,18.5,24.6,07.8,05.3,0664.5,31.1
2021-06-25T16:22:00Z,00000200,00000000,0001.41,0000.92,0000.54,0000.29,0000.16,-000.04,0000.39,0000.13,-000.19,18.5,24.6,07.6,05.3,0664.2,31.1
2021-06-25T16:23:00Z,00000200,00000000,0001.45,0000.65,0000.52,0000.42,0000.26,0000.08,-000.19,0000.14,0000.49,18.5,24.6,07.4,05.1,0664.2,31.1
2021-06-25T16:24:00Z,00000200,00000000,0001.73,0001.03,0000.32,0000.43,0000.40,-000.02,0000.32,0000.19,0000.11,18.5,24.6,07.3,05.0,0664.0,31.1
2021-06-25T16:25:00Z,00000200,00000000,0000.27,0000.75,0000.53,-000.26,0000.33,0000.51,0000.81,0000.19,0000.48,18.5,24.6,07.3,05.0,0664.3,31.1
2021-06-25T16:26:00Z,00000200,00000000,0001.18,0000.68,0000.30,0000.48,0000.20,0000.00,-000.18,0000.32,-000.29,18.5,24.5,07.5,05.2,0664.3,31.1
2021-06-25T16:27:00Z,00000200,00000000,0001.90,0000.62,0000.54,-000.35,0000.28,0000.08,0000.52,0000.67,0000.56,18.5,24.5,07.5,05.1,0664.2,31.1
2021-06-25T16:28:00Z,00000200,00000000,0001.29,0001.09,0000.51,0000.16,-000.05,-000.23,0000.35,0000.08,0000.16,18.5,24.5,07.4,05.1,0664.4,31.1
2021-06-25T16:29:00Z,00000200,00000000,0001.65,0001.13,0000.55,0000.21,0000.26,0000.40,0000.34,0000.35,0000.48,18.4,24.5,07.7,05.3,0664.6,31.1
2021-06-25T16:30:00Z,00000200,00000000,0002.04,0000.98,0000.34,-000.03,0000.14,0000.12,0000.32,0000.43,-000.08,18.4,24.5,07.8,05.4,0664.5,31.1
2021-06-25T16:31:00Z,00000200,00000000,0001.46,0000.99,0000.33,0000.20,0000.10,0000.04,0000.02,-000.23,0000.25,18.4,24.5,07.7,05.3,0664.2,31.1
2021-06-25T16:32:00Z,00000200,00000000,0002.10,0000.49,0000.52,-000.03,0000.01,0000.39,0000.49,0001.00,0000.35,18.4,24.5,07.7,05.3,0664.2,31.1
2021-06-25T16:33:00Z,00000200,00000000,0001.22,0000.89,0000.63,-000.39,0000.62,0000.37,0000.68,-000.20,0000.32,18.4,24.5,07.6,05.3,0664.2,31.1
2021-06-25T16:34:00Z,00000200,00000000,0000.72,0000.91,0000.11,0000.01,0000.17,0000.44,-000.05,0000.74,-000.13,18.5,24.5,07.4,05.1,0664.1,31.1
2021-06-25T16:35:00Z,00000200,00000000,0001.65,0001.18,0000.59,-000.14,0000.20,0000.22,0000.55,0000.10,0000.52,18.5,24.5,07.2,05.0,0664.1,31.1
2021-06-25T16:36:00Z,00000200,00000000,0001.38,0001.10,0000.45,-000.50,0000.19,0000.15,0000.31,0000.13,0000.36,18.6,24.6,07.3,05.0,0664.3,31.1
2021-06-25T16:37:00Z,00000200,00000000,0001.68,0000.91,0000.32,0000.37,0000.36,-000.05,0000.33,0000.44,0000.07,18.6,24.6,07.3,05.1,0664.3,31.1
2021-06-25T16:38:00Z,00000200,00000000,0001.38,0000.74,0000.37,0000.25,0000.43,0000.01,0000.14,0000.25,0000.11,18.6,24.6,07.4,05.1,0664.6,31.1
2021-06-25T16:39:00Z,00000200,00000000,0002.25,0000.98,0000.35,-000.04,0000.20,0000.21,0000.45,0000.04,0000.16,18.6,24.6,07.4,05.1,0664.4,31.1
2021-06-25T16:40:00Z,00000200,00000000,0001.64,0001.03,0000.49,0000.21,0000.16,0000.34,0000.21,0000.39,0000.32,18.6,24.6,07.4,05.1,0664.6,31.1
2021-06-25T16:41:00Z,00000200,00000000,0001.83,0000.62,0000.40,0001.06,0000.19,0000.41,0000.15,0000.49,-000.18,18.5,24.6,07.5,05.2,0664.5,31.1
2021-06-25T16:42:00Z,00000200,00000000,0000.96,0000.74,0000.48,0000.13,0000.33,0000.21,0000.50,0000.28,0000.45,18.5,24.6,07.3,05.1,0664.5,31.1
2021-06-25T16:43:00Z,00000200,00000000,0001.70,0000.99,0000.54,0000.30,-000.16,-000.04,0000.52,0000.42,0000.38,18.5,24.6,07.4,05.1,0664.6,31.1
2021-06-25T16:44:00Z,00000200,00000000,0001.44,0000.60,0000.11,0000.57,0000.11,0000.22,0000.53,0000.46,0000.46,18.5,24.6,07.6,05.3,0664.8,31.1
2021-06-25T16:45:00Z,00000200,00000000,0001.39,0000.64,0000.42,0000.14,0000.32,0000.29,0000.28,-000.01,0000.18,18.5,24.5,07.8,05.4,0664.8,31.1
2021-06-25T16:46:00Z,00000200,00000000,0000.87,0000.85,0000.44,0000.36,0000.38,0000.41,-000.05,0000.14,-000.02,18.5,24.5,07.6,05.2,0664.4,31.1
2021-06-25T16:47:00Z,00000200,00000000,0001.13,0000.85,0000.39,0000.30,0000.32,0000.16,0000.29,0000.28,0000.23,18.4,24.5,07.3,05.0,0664.6,31.1
2021-06-25T16:48:00Z,00000200,00000000,0001.39,0000.89,0000.35,0000.40,0000.07,0000.38,0000.57,0000.73,0000.47,18.4,24.5,07.4,05.1,0664.7,31.1
2021-06-25T16:49:00Z,00000200,00000000,0000.72,0000.87,0000.65,0000.28,0000.27,0000.19,-000.07,0000.08,-000.00,18.5,24.5,07.5,05.2,0664.6,31.1
2021-06-25T16:50:00Z,00000200,00000000,0001.06,0000.71,0000.31,0000.09,0000.31,0000.20,0000.73,0000.24,0000.43,18.6,24.6,07.3,05.1,0664.7,31.1
2021-06-25T16:51:00Z,00000200,00000000,0001.56,0000.77,0000.37,0000.10,0000.12,-000.02,0000.58,0000.73,0000.44,18.6,24.6,07.3,05.0,0664.5,31.1
2021-06-25T16:52:00Z,00000200,00000000,0001.84,0001.05,0000.68,0000.05,-000.01,0000.08,0000.11,-000.03,0000.00,18.7,24.7,07.3,05.1,0664.7,31.1
2021-06-25T16:53:00Z,00000200,00000000,0001.88,0001.10,0000.59,0000.36,0000.15,0000.44,0000.23,0000.26,0000.13,18.7,24.7,07.3,05.0,0664.5,31.1
2021-06-25T16:54:00Z,00000200,00000000,0001.20,0001.00,0000.79,0000.25,0000.46,0000.42,0000.48,0000.26,0000.18,18.7,24.7,07.3,05.1,0664.8,31.1
2021-06-25T16:55:00Z,00000200,00000000,0001.65,0001.13,0000.70,-000.32,0000.13,0000.35,0000.03,0000.29,0000.18,18.7,24.7,07.3,05.0,0664.6,31.1
2021-06-25T16:56:00Z,00000200,00000000,0001.18,0000.70,0000.65,-000.10,0000.35,0000.14,0000.50,0000.25,0000.35,18.6,24.7,07.2,05.0,0664.9,31.1
2021-06-25T16:57:00Z,00000200,40000000,,,,,,,0000.21,0000.29,0000.11,18.7,24.7,07.2,05.0,0665.3,31.1
2021-06-25T16:58:00Z,00000200,60000000,,,,,,,-000.15,0000.05,-000.09,18.5,24.8,07.4,05.0,0663.8,31.1
2021-06-25T16:59:00Z,00000200,20000000,,,,,,,0000.18,0000.00,0000.01,18.5,24.9,07.4,05.0,0663.8,31.1
